Time,TemperatureF,DewpointF,PressureIn,WindDirection,WindDirectionDegrees,WindSpeedMPH,WindSpeedGustMPH,Humidity,HourlyPrecipIn,Conditions,Clouds,dailyrainin,SoftwareType,DateUTC
2013-12-13 00:02:00,46.3,7.4,25.16,West,270,8.0,-999.0,20,-99.99,,,-99.99,dwt +perl,2013-12-13 08:02:00,
2013-12-13 00:07:00,46.5,7.6,25.16,West,267,7.0,-999.0,20,-99.99,,,-99.99,dwt +perl,2013-12-13 08:07:00,
2013-12-13 00:12:00,46.6,7.7,25.16,WSW,252,6.0,-999.0,20,-99.99,,,-99.99,dwt +perl,2013-12-13 08:12:00,
2013-12-13 00:17:00,46.4,7.5,25.16,West,264,7.0,-999.0,20,-99.99,,,-99.99,dwt +perl,2013-12-13 08:17:00,
2013-12-13 00:22:00,46.4,7.5,25.15,West,272,6.0,-999.0,20,-99.99,,,-99.99,dwt +perl,2013-12-13 08:22:00,
2013-12-13 00:27:00,46.3,7.4,25.15,West,268,4.0,-999.0,20,-99.99,,,-99.99,dwt +perl,2013-12-13 08:27:00,
2013-12-13 00:32:00,46.2,8.4,25.15,West,268,7.0,-999.0,21,-99.99,,,-99.99,dwt +perl,2013-12-13 08:32:00,
2013-12-13 00:37:00,46.1,8.4,25.15,West,268,6.0,-999.0,21,-99.99,,,-99.99,dwt +perl,2013-12-13 08:37:00,
2013-12-13 00:42:00,46.2,8.4,25.15,West,268,7.0,-999.0,21,-99.99,,,-99.99,dwt +perl,2013-12-13 08:42:00,
2013-12-13 00:47:00,46.3,8.5,25.15,West,274,6.0,-999.0,21,-99.99,,,-99.99,dwt +perl,2013-12-13 08:47:00,
2013-12-13 00:52:00,46.2,8.4,25.15,West,272,7.0,-999.0,21,-99.99,,,-99.99,dwt +perl,2013-12-13 08:52:00,
2013-12-13 00:57:00,46.0,8.3,25.15,West,272,9.0,-999.0,21,-99.99,,,-99.99,dwt +perl,2013-12-13 08:57:00,
2013-12-13 01:02:00,45.9,8.2,25.15,West,273,8.0,-999.0,21,-99.99,,,-99.99,dwt +perl,2013-12-13 09:02:00,
2013-12-13 01:07:00,45.9,8.2,25.15,WNW,290,7.0,-999.0,21,-99.99,,,-99.99,dwt +perl,2013-12-13 09:07:00,
2013-12-13 01:12:00,46.4,6.4,25.14,WNW,296,9.0,-999.0,19,-99.99,,,-99.99,dwt +perl,2013-12-13 09:12:00,
2013-12-13 01:17:00,46.6,5.4,25.15,WNW,300,9.0,-999.0,18,-99.99,,,-99.99,dwt +perl,2013-12-13 09:17:00,
2013-12-13 01:22:00,46.8,5.6,25.15,NW,307,9.0,-999.0,18,-99.99,,,-99.99,dwt +perl,2013-12-13 09:22:00,
2013-12-13 01:27:00,46.6,5.4,25.15,WNW,289,7.0,-999.0,18,-99.99,,,-99.99,dwt +perl,2013-12-13 09:27:00,
2013-12-13 01:32:00,46.1,7.3,25.15,WNW,285,7.0,-999.0,20,-99.99,,,-99.99,dwt +perl,2013-12-13 09:32:00,
2013-12-13 01:37:00,45.8,7.0,25.15,WNW,285,8.0,-999.0,20,-99.99,,,-99.99,dwt +perl,2013-12-13 09:37:00,
2013-12-13 01:42:00,45.6,7.9,25.15,West,278,6.0,-999.0,21,-99.99,,,-99.99,dwt +perl,2013-12-13 09:42:00,
2013-12-13 01:47:00,45.4,6.7,25.15,WNW,301,6.0,-999.0,20,-99.99,,,-99.99,dwt +perl,2013-12-13 09:47:00,
2013-12-13 01:52:00,45.6,5.8,25.15,WNW,297,9.0,-999.0,19,-99.99,,,-99.99,dwt +perl,2013-12-13 09:52:00,
2013-12-13 01:57:00,45.7,5.8,25.15,WNW,303,8.0,-999.0,19,-99.99,,,-99.99,dwt +perl,2013-12-13 09:57:00,
2013-12-13 02:02:00,45.8,4.7,25.15,WNW,300,8.0,-999.0,18,-99.99,,,-99.99,dwt +perl,2013-12-13 10:02:00,
2013-12-13 02:07:00,46.3,5.2,25.15,NW,310,10.0,-999.0,18,-99.99,,,-99.99,dwt +perl,2013-12-13 10:07:00,
2013-12-13 02:12:00,46.7,4.2,25.15,NW,316,6.0,-999.0,17,-99.99,,,-99.99,dwt +perl,2013-12-13 10:12:00,
2013-12-13 02:17:00,46.7,6.7,25.15,NW,324,7.0,-999.0,19,-99.99,,,-99.99,dwt +perl,2013-12-13 10:17:00,
2013-12-13 02:22:00,46.3,6.3,25.15,NNW,340,2.0,-999.0,19,-99.99,,,-99.99,dwt +perl,2013-12-13 10:22:00,
2013-12-13 02:27:00,46.0,6.1,25.15,North,4,3.0,-999.0,19,-99.99,,,-99.99,dwt +perl,2013-12-13 10:27:00,
2013-12-13 02:32:00,45.9,4.8,25.15,North,4,5.0,-999.0,18,-99.99,,,-99.99,dwt +perl,2013-12-13 10:32:00,
2013-12-13 02:37:00,45.6,4.6,25.15,North,10,2.0,-999.0,18,-99.99,,,-99.99,dwt +perl,2013-12-13 10:37:00,
2013-12-13 02:42:00,45.4,4.4,25.16,North,10,3.0,-999.0,18,-99.99,,,-99.99,dwt +perl,2013-12-13 10:42:00,
2013-12-13 02:47:00,45.4,4.4,25.16,North,10,4.0,-999.0,18,-99.99,,,-99.99,dwt +perl,2013-12-13 10:47:00,
2013-12-13 02:52:00,45.4,5.6,25.16,North,359,3.0,-999.0,19,-99.99,,,-99.99,dwt +perl,2013-12-13 10:52:00,
2013-12-13 02:57:00,46.1,6.2,25.16,NNW,331,10.0,-999.0,19,-99.99,,,-99.99,dwt +perl,2013-12-13 10:57:00,
2013-12-13 03:02:00,46.9,6.8,25.16,NNW,328,11.0,-999.0,19,-99.99,,,-99.99,dwt +perl,2013-12-13 11:02:00,
2013-12-13 03:07:00,47.2,8.2,25.16,NW,323,10.0,-999.0,20,-99.99,,,-99.99,dwt +perl,2013-12-13 11:07:00,
2013-12-13 03:12:00,47.0,8.0,25.16,North,354,9.0,-999.0,20,-99.99,,,-99.99,dwt +perl,2013-12-13 11:12:00,
2013-12-13 03:17:00,46.9,6.8,25.16,NNW,330,12.0,-999.0,19,-99.99,,,-99.99,dwt +perl,2013-12-13 11:17:00,
2013-12-13 03:22:00,47.0,6.9,25.15,NW,318,9.0,-999.0,19,-99.99,,,-99.99,dwt +perl,2013-12-13 11:22:00,
2013-12-13 03:27:00,47.0,6.9,25.15,NW,315,11.0,-999.0,19,-99.99,,,-99.99,dwt +perl,2013-12-13 11:27:00,
2013-12-13 03:32:00,47.0,6.9,25.15,NW,313,9.0,-999.0,19,-99.99,,,-99.99,dwt +perl,2013-12-13 11:32:00,
2013-12-13 03:47:00,46.3,5.2,25.15,NW,306,8.0,-999.0,18,-99.99,,,-99.99,dwt +perl,2013-12-13 11:47:00,
2013-12-13 03:49:00,46.9,5.6,25.15,NW,324,9.0,-999.0,18,-99.99,,,-99.99,dwt +perl,2013-12-13 11:49:00,
2013-12-13 03:54:00,46.7,5.5,25.15,NW,316,9.0,-999.0,18,-99.99,,,-99.99,dwt +perl,2013-12-13 11:54:00,
2013-12-13 04:02:00,46.0,6.1,25.15,NW,326,9.0,-999.0,19,-99.99,,,-99.99,dwt +perl,2013-12-13 12:02:00,
2013-12-13 04:04:00,46.2,5.1,25.15,NW,319,7.0,-999.0,18,-99.99,,,-99.99,dwt +perl,2013-12-13 12:04:00,
2013-12-13 04:09:00,46.3,5.2,25.15,NW,318,6.0,-999.0,18,-99.99,,,-99.99,dwt +perl,2013-12-13 12:09:00,
2013-12-13 04:17:00,45.4,5.6,25.15,NW,321,7.0,-999.0,19,-99.99,,,-99.99,dwt +perl,2013-12-13 12:17:00,
2013-12-13 04:19:00,45.2,6.5,25.15,NW,326,5.0,-999.0,20,-99.99,,,-99.99,dwt +perl,2013-12-13 12:19:00,
2013-12-13 04:22:00,46.0,4.9,25.15,NW,319,6.0,-999.0,18,-99.99,,,-99.99,dwt +perl,2013-12-13 12:22:00,
2013-12-13 04:24:00,44.9,6.3,25.15,NW,322,4.0,-999.0,20,-99.99,,,-99.99,dwt +perl,2013-12-13 12:24:00,
2013-12-13 04:27:00,45.7,5.8,25.15,NW,319,2.0,-999.0,19,-99.99,,,-99.99,dwt +perl,2013-12-13 12:27:00,
2013-12-13 04:32:00,45.0,6.4,25.15,NW,320,3.0,-999.0,20,-99.99,,,-99.99,dwt +perl,2013-12-13 12:32:00,
2013-12-13 04:37:00,44.8,7.3,25.15,NW,322,6.0,-999.0,21,-99.99,,,-99.99,dwt +perl,2013-12-13 12:37:00,
2013-12-13 04:42:00,44.3,6.9,25.15,NW,321,4.0,-999.0,21,-99.99,,,-99.99,dwt +perl,2013-12-13 12:42:00,
2013-12-13 04:47:00,44.0,7.6,25.15,NNW,331,3.0,-999.0,22,-99.99,,,-99.99,dwt +perl,2013-12-13 12:47:00,
2013-12-13 04:52:00,43.8,7.5,25.15,NW,319,4.0,-999.0,22,-99.99,,,-99.99,dwt +perl,2013-12-13 12:52:00,
2013-12-13 04:57:00,44.0,5.5,25.15,NNW,333,3.0,-999.0,20,-99.99,,,-99.99,dwt +perl,2013-12-13 12:57:00,
2013-12-13 05:07:00,45.6,5.8,25.15,NNE,12,4.0,-999.0,19,-99.99,,,-99.99,dwt +perl,2013-12-13 13:07:00,
2013-12-13 05:12:00,45.4,6.7,25.15,NNE,13,5.0,-999.0,20,-99.99,,,-99.99,dwt +perl,2013-12-13 13:12:00,
2013-12-13 05:14:00,44.7,6.1,25.15,North,359,4.0,-999.0,20,-99.99,,,-99.99,dwt +perl,2013-12-13 13:14:00,
2013-12-13 05:22:00,44.7,6.1,25.15,NNE,23,6.0,-999.0,20,-99.99,,,-99.99,dwt +perl,2013-12-13 13:22:00,
2013-12-13 05:27:00,44.8,6.2,25.15,NNE,23,6.0,-999.0,20,-99.99,,,-99.99,dwt +perl,2013-12-13 13:27:00,
2013-12-13 05:29:00,45.1,6.5,25.15,NNE,23,7.0,-999.0,20,-99.99,,,-99.99,dwt +perl,2013-12-13 13:29:00,
2013-12-13 05:32:00,44.6,6.0,25.15,NNE,27,7.0,-999.0,20,-99.99,,,-99.99,dwt +perl,2013-12-13 13:32:00,
2013-12-13 05:42:00,44.7,6.1,25.15,NNE,27,8.0,-999.0,20,-99.99,,,-99.99,dwt +perl,2013-12-13 13:42:00,
2013-12-13 05:47:00,44.9,6.3,25.15,NNE,31,6.0,-999.0,20,-99.99,,,-99.99,dwt +perl,2013-12-13 13:47:00,
2013-12-13 05:49:00,44.5,6.0,25.15,NNE,31,7.0,-999.0,20,-99.99,,,-99.99,dwt +perl,2013-12-13 13:49:00,
2013-12-13 05:52:00,45.1,6.5,25.15,NNE,27,6.0,-999.0,20,-99.99,,,-99.99,dwt +perl,2013-12-13 13:52:00,
2013-12-13 05:57:00,45.2,6.5,25.15,NNE,30,6.0,-999.0,20,-99.99,,,-99.99,dwt +perl,2013-12-13 13:57:00,
2013-12-13 06:02:00,45.2,6.5,25.15,NNE,27,8.0,-999.0,20,-99.99,,,-99.99,dwt +perl,2013-12-13 14:02:00,
2013-12-13 06:07:00,45.4,6.7,25.15,NNE,24,10.0,-999.0,20,-99.99,,,-99.99,dwt +perl,2013-12-13 14:07:00,
2013-12-13 06:12:00,45.5,6.8,25.15,NNE,23,9.0,-999.0,20,-99.99,,,-99.99,dwt +perl,2013-12-13 14:12:00,
2013-12-13 06:17:00,45.5,6.8,25.15,NNE,25,9.0,-999.0,20,-99.99,,,-99.99,dwt +perl,2013-12-13 14:17:00,
2013-12-13 06:27:00,45.2,6.5,25.16,NNE,27,7.0,-999.0,20,-99.99,,,-99.99,dwt +perl,2013-12-13 14:27:00,
2013-12-13 06:32:00,45.6,6.9,25.16,NNE,26,7.0,-999.0,20,-99.99,,,-99.99,dwt +perl,2013-12-13 14:32:00,
2013-12-13 06:34:00,45.1,7.5,25.15,NNE,27,7.0,-999.0,21,-99.99,,,-99.99,dwt +perl,2013-12-13 14:34:00,
2013-12-13 06:37:00,45.7,7.0,25.16,NNE,27,8.0,-999.0,20,-99.99,,,-99.99,dwt +perl,2013-12-13 14:37:00,
2013-12-13 06:42:00,45.8,7.0,25.16,NNE,20,8.0,-999.0,20,-99.99,,,-99.99,dwt +perl,2013-12-13 14:42:00,
2013-12-13 06:47:00,45.8,7.0,25.16,NNE,27,6.0,-999.0,20,-99.99,,,-99.99,dwt +perl,2013-12-13 14:47:00,
2013-12-13 06:52:00,45.7,7.0,25.16,NNE,29,6.0,-999.0,20,-99.99,,,-99.99,dwt +perl,2013-12-13 14:52:00,
2013-12-13 06:57:00,45.6,6.9,25.16,NNE,27,9.0,-999.0,20,-99.99,,,-99.99,dwt +perl,2013-12-13 14:57:00,
2013-12-13 07:02:00,45.4,7.8,25.16,NNE,25,8.0,-999.0,21,-99.99,,,-99.99,dwt +perl,2013-12-13 15:02:00,
2013-12-13 07:07:00,45.1,8.6,25.16,NNE,25,9.0,-999.0,22,-99.99,,,-99.99,dwt +perl,2013-12-13 15:07:00,
2013-12-13 07:12:00,45.2,8.6,25.16,NNE,25,10.0,-999.0,22,-99.99,,,-99.99,dwt +perl,2013-12-13 15:12:00,
2013-12-13 07:22:00,45.0,8.5,25.17,NNE,25,5.0,-999.0,22,-99.99,,,-99.99,dwt +perl,2013-12-13 15:22:00,
2013-12-13 07:29:00,45.2,9.6,25.17,NNE,25,10.0,-999.0,23,-99.99,,,-99.99,dwt +perl,2013-12-13 15:29:00,
2013-12-13 07:37:00,45.0,9.5,25.17,NE,47,5.0,-999.0,23,-99.99,,,-99.99,dwt +perl,2013-12-13 15:37:00,
2013-12-13 07:39:00,44.9,9.4,25.17,NNE,25,5.0,-999.0,23,-99.99,,,-99.99,dwt +perl,2013-12-13 15:39:00,
2013-12-13 07:42:00,45.0,8.5,25.17,NE,48,8.0,-999.0,22,-99.99,,,-99.99,dwt +perl,2013-12-13 15:42:00,
2013-12-13 07:44:00,44.9,8.4,25.16,NE,48,11.0,-999.0,22,-99.99,,,-99.99,dwt +perl,2013-12-13 15:44:00,
2013-12-13 07:47:00,45.1,9.5,25.17,NE,49,11.0,-999.0,23,-99.99,,,-99.99,dwt +perl,2013-12-13 15:47:00,
2013-12-13 07:52:00,45.1,9.5,25.17,NE,47,11.0,-999.0,23,-99.99,,,-99.99,dwt +perl,2013-12-13 15:52:00,
2013-12-13 07:57:00,45.1,9.5,25.17,NE,52,9.0,-999.0,23,-99.99,,,-99.99,dwt +perl,2013-12-13 15:57:00,
2013-12-13 08:02:00,45.2,9.6,25.17,NE,52,13.0,-999.0,23,-99.99,,,-99.99,dwt +perl,2013-12-13 16:02:00,
2013-12-13 08:12:00,45.6,10.0,25.18,NE,48,10.0,-999.0,23,-99.99,,,-99.99,dwt +perl,2013-12-13 16:12:00,
2013-12-13 08:19:00,45.5,9.9,25.18,NE,56,15.0,-999.0,23,-99.99,,,-99.99,dwt +perl,2013-12-13 16:19:00,
2013-12-13 08:22:00,45.6,10.9,25.18,ENE,59,9.0,-999.0,24,-99.99,,,-99.99,dwt +perl,2013-12-13 16:22:00,
2013-12-13 08:27:00,45.4,9.8,25.18,NE,54,10.0,-999.0,23,-99.99,,,-99.99,dwt +perl,2013-12-13 16:27:00,
2013-12-13 08:29:00,45.7,10.1,25.18,NE,43,7.0,-999.0,23,-99.99,,,-99.99,dwt +perl,2013-12-13 16:29:00,
2013-12-13 08:37:00,45.7,10.1,25.18,NE,54,8.0,-999.0,23,-99.99,,,-99.99,dwt +perl,2013-12-13 16:37:00,
2013-12-13 08:44:00,45.5,11.7,25.18,NE,50,7.0,-999.0,25,-99.99,,,-99.99,dwt +perl,2013-12-13 16:44:00,
2013-12-13 08:47:00,46.4,8.6,25.19,NE,51,12.0,-999.0,21,-99.99,,,-99.99,dwt +perl,2013-12-13 16:47:00,
2013-12-13 08:52:00,46.5,9.7,25.19,ENE,62,9.0,-999.0,22,-99.99,,,-99.99,dwt +perl,2013-12-13 16:52:00,
2013-12-13 08:54:00,46.1,10.4,25.18,NE,42,5.0,-999.0,23,-99.99,,,-99.99,dwt +perl,2013-12-13 16:54:00,
2013-12-13 08:57:00,46.5,10.7,25.19,NE,44,9.0,-999.0,23,-99.99,,,-99.99,dwt +perl,2013-12-13 16:57:00,
2013-12-13 09:07:00,46.4,11.6,25.19,ENE,60,5.0,-999.0,24,-99.99,,,-99.99,dwt +perl,2013-12-13 17:07:00,
2013-12-13 09:12:00,46.5,11.7,25.19,ENE,59,10.0,-999.0,24,-99.99,,,-99.99,dwt +perl,2013-12-13 17:12:00,
2013-12-13 09:14:00,46.4,11.6,25.19,ENE,59,9.0,-999.0,24,-99.99,,,-99.99,dwt +perl,2013-12-13 17:14:00,
2013-12-13 09:27:00,46.8,12.9,25.20,NE,46,6.0,-999.0,25,-99.99,,,-99.99,dwt +perl,2013-12-13 17:27:00,
2013-12-13 09:29:00,46.6,11.8,25.20,ENE,66,5.0,-999.0,24,-99.99,,,-99.99,dwt +perl,2013-12-13 17:29:00,
2013-12-13 09:34:00,46.8,11.9,25.20,ENE,58,4.0,-999.0,24,-99.99,,,-99.99,dwt +perl,2013-12-13 17:34:00,
2013-12-13 09:44:00,46.8,11.9,25.20,ENE,58,2.0,-999.0,24,-99.99,,,-99.99,dwt +perl,2013-12-13 17:44:00,
2013-12-13 09:49:00,47.1,13.1,25.20,NE,53,4.0,-999.0,25,-99.99,,,-99.99,dwt +perl,2013-12-13 17:49:00,
2013-12-13 09:54:00,47.3,10.4,25.20,NNE,30,5.0,-999.0,22,-99.99,,,-99.99,dwt +perl,2013-12-13 17:54:00,
2013-12-13 09:57:00,47.8,11.8,25.21,NE,56,11.0,-999.0,23,-99.99,,,-99.99,dwt +perl,2013-12-13 17:57:00,
2013-12-13 09:59:00,47.5,10.6,25.21,NE,50,8.0,-999.0,22,-99.99,,,-99.99,dwt +perl,2013-12-13 17:59:00,
2013-12-13 10:04:00,47.7,10.7,25.21,NE,37,6.0,-999.0,22,-99.99,,,-99.99,dwt +perl,2013-12-13 18:04:00,
2013-12-13 10:07:00,48.1,11.1,25.21,NE,51,8.0,-999.0,22,-99.99,,,-99.99,dwt +perl,2013-12-13 18:07:00,
2013-12-13 10:12:00,48.4,10.3,25.21,NE,53,7.0,-999.0,21,-99.99,,,-99.99,dwt +perl,2013-12-13 18:12:00,
2013-12-13 10:14:00,47.9,10.9,25.21,NNE,23,6.0,-999.0,22,-99.99,,,-99.99,dwt +perl,2013-12-13 18:14:00,
2013-12-13 10:22:00,48.6,10.4,25.21,ENE,77,11.0,-999.0,21,-99.99,,,-99.99,dwt +perl,2013-12-13 18:22:00,
2013-12-13 10:27:00,48.4,10.3,25.21,NNE,26,7.0,-999.0,21,-99.99,,,-99.99,dwt +perl,2013-12-13 18:27:00,
2013-12-13 10:29:00,48.4,10.3,25.21,NE,54,8.0,-999.0,21,-99.99,,,-99.99,dwt +perl,2013-12-13 18:29:00,
2013-12-13 10:32:00,47.9,10.9,25.21,NNE,32,3.0,-999.0,22,-99.99,,,-99.99,dwt +perl,2013-12-13 18:32:00,
2013-12-13 10:37:00,48.0,12.0,25.21,NE,37,2.0,-999.0,23,-99.99,,,-99.99,dwt +perl,2013-12-13 18:37:00,
2013-12-13 10:52:00,47.9,10.9,25.21,NE,38,4.0,-999.0,22,-99.99,,,-99.99,dwt +perl,2013-12-13 18:52:00,
2013-12-13 10:54:00,48.3,11.2,25.21,NNE,31,6.0,-999.0,22,-99.99,,,-99.99,dwt +perl,2013-12-13 18:54:00,
2013-12-13 10:57:00,47.9,11.9,25.21,NNE,33,3.0,-999.0,23,-99.99,,,-99.99,dwt +perl,2013-12-13 18:57:00,
2013-12-13 10:59:00,48.1,11.1,25.21,NNE,32,3.0,-999.0,22,-99.99,,,-99.99,dwt +perl,2013-12-13 18:59:00,
2013-12-13 11:02:00,47.8,11.8,25.21,NE,35,1.0,-999.0,23,-99.99,,,-99.99,dwt +perl,2013-12-13 19:02:00,
2013-12-13 11:12:00,48.1,12.1,25.21,NNE,32,5.0,-999.0,23,-99.99,,,-99.99,dwt +perl,2013-12-13 19:12:00,
2013-12-13 11:19:00,48.1,12.1,25.21,NE,35,4.0,-999.0,23,-99.99,,,-99.99,dwt +perl,2013-12-13 19:19:00,
2013-12-13 11:22:00,47.8,12.8,25.21,NE,53,5.0,-999.0,24,-99.99,,,-99.99,dwt +perl,2013-12-13 19:22:00,
2013-12-13 11:29:00,47.8,12.8,25.21,NE,39,4.0,-999.0,24,-99.99,,,-99.99,dwt +perl,2013-12-13 19:29:00,
2013-12-13 11:39:00,47.8,12.8,25.21,NNE,33,5.0,-999.0,24,-99.99,,,-99.99,dwt +perl,2013-12-13 19:39:00,
2013-12-13 11:42:00,48.5,12.4,25.20,NE,42,4.0,-999.0,23,-99.99,,,-99.99,dwt +perl,2013-12-13 19:42:00,
2013-12-13 11:44:00,47.9,13.8,25.20,NE,42,2.0,-999.0,25,-99.99,,,-99.99,dwt +perl,2013-12-13 19:44:00,
2013-12-13 11:49:00,48.4,14.2,25.20,NE,42,2.0,-999.0,25,-99.99,,,-99.99,dwt +perl,2013-12-13 19:49:00,
2013-12-13 11:54:00,48.5,12.4,25.20,NE,42,4.0,-999.0,23,-99.99,,,-99.99,dwt +perl,2013-12-13 19:54:00,
2013-12-13 12:04:00,48.3,13.2,25.19,NE,55,0.0,-999.0,24,-99.99,,,-99.99,dwt +perl,2013-12-13 20:04:00,
2013-12-13 12:09:00,48.7,12.6,25.19,NE,54,8.0,-999.0,23,-99.99,,,-99.99,dwt +perl,2013-12-13 20:09:00,
2013-12-13 12:14:00,48.5,10.4,25.19,ENE,78,6.0,-999.0,21,-99.99,,,-99.99,dwt +perl,2013-12-13 20:14:00,
2013-12-13 12:17:00,47.6,11.6,25.19,NE,39,3.0,-999.0,23,-99.99,,,-99.99,dwt +perl,2013-12-13 20:17:00,
2013-12-13 12:19:00,48.3,11.2,25.19,ENE,57,8.0,-999.0,22,-99.99,,,-99.99,dwt +perl,2013-12-13 20:19:00,
2013-12-13 12:22:00,47.7,11.7,25.19,NE,45,4.0,-999.0,23,-99.99,,,-99.99,dwt +perl,2013-12-13 20:22:00,
2013-12-13 12:24:00,47.9,11.9,25.19,NNE,24,5.0,-999.0,23,-99.99,,,-99.99,dwt +perl,2013-12-13 20:24:00,
2013-12-13 12:39:00,47.3,12.4,25.19,NNE,23,7.0,-999.0,24,-99.99,,,-99.99,dwt +perl,2013-12-13 20:39:00,
2013-12-13 12:42:00,46.9,12.0,25.18,NNE,15,5.0,-999.0,24,-99.99,,,-99.99,dwt +perl,2013-12-13 20:42:00,
2013-12-13 12:44:00,47.1,13.1,25.18,NNE,27,7.0,-999.0,25,-99.99,,,-99.99,dwt +perl,2013-12-13 20:44:00,
2013-12-13 12:47:00,47.2,12.3,25.18,NE,37,6.0,-999.0,24,-99.99,,,-99.99,dwt +perl,2013-12-13 20:47:00,
2013-12-13 12:49:00,46.9,12.0,25.18,NNE,29,6.0,-999.0,24,-99.99,,,-99.99,dwt +perl,2013-12-13 20:49:00,
2013-12-13 13:04:00,47.3,11.4,25.18,NNE,31,7.0,-999.0,23,-99.99,,,-99.99,dwt +perl,2013-12-13 21:04:00,
2013-12-13 13:09:00,47.3,11.4,25.18,NNE,25,7.0,-999.0,23,-99.99,,,-99.99,dwt +perl,2013-12-13 21:09:00,
2013-12-13 13:14:00,47.3,12.4,25.18,NE,50,8.0,-999.0,24,-99.99,,,-99.99,dwt +perl,2013-12-13 21:14:00,
2013-12-13 13:19:00,47.3,11.4,25.18,NE,43,6.0,-999.0,23,-99.99,,,-99.99,dwt +perl,2013-12-13 21:19:00,
2013-12-13 13:24:00,47.4,12.4,25.18,NNE,31,5.0,-999.0,24,-99.99,,,-99.99,dwt +perl,2013-12-13 21:24:00,
2013-12-13 13:29:00,47.2,11.3,25.18,NNE,27,4.0,-999.0,23,-99.99,,,-99.99,dwt +perl,2013-12-13 21:29:00,
2013-12-13 13:34:00,47.3,13.3,25.18,NNE,27,4.0,-999.0,25,-99.99,,,-99.99,dwt +perl,2013-12-13 21:34:00,
2013-12-13 13:39:00,47.4,13.4,25.18,NE,43,3.0,-999.0,25,-99.99,,,-99.99,dwt +perl,2013-12-13 21:39:00,
2013-12-13 13:44:00,47.8,12.8,25.18,NNE,31,5.0,-999.0,24,-99.99,,,-99.99,dwt +perl,2013-12-13 21:44:00,
2013-12-13 13:47:00,47.4,11.5,25.18,ENE,64,3.0,-999.0,23,-99.99,,,-99.99,dwt +perl,2013-12-13 21:47:00,
2013-12-13 13:49:00,47.9,10.9,25.18,NE,54,4.0,-999.0,22,-99.99,,,-99.99,dwt +perl,2013-12-13 21:49:00,
2013-12-13 13:54:00,47.7,11.7,25.18,NE,54,4.0,-999.0,23,-99.99,,,-99.99,dwt +perl,2013-12-13 21:54:00,
2013-12-13 14:04:00,47.3,13.3,25.18,NE,36,3.0,-999.0,25,-99.99,,,-99.99,dwt +perl,2013-12-13 22:04:00,
2013-12-13 14:09:00,47.2,13.2,25.18,NNE,30,3.0,-999.0,25,-99.99,,,-99.99,dwt +perl,2013-12-13 22:09:00,
2013-12-13 14:14:00,47.2,13.2,25.18,NNE,31,2.0,-999.0,25,-99.99,,,-99.99,dwt +perl,2013-12-13 22:14:00,
2013-12-13 14:19:00,47.6,12.6,25.18,NNE,22,2.0,-999.0,24,-99.99,,,-99.99,dwt +perl,2013-12-13 22:19:00,
2013-12-13 14:24:00,47.7,10.7,25.18,NNE,26,0.0,-999.0,22,-99.99,,,-99.99,dwt +perl,2013-12-13 22:24:00,
2013-12-13 14:29:00,47.8,12.8,25.18,NNE,21,0.0,-999.0,24,-99.99,,,-99.99,dwt +perl,2013-12-13 22:29:00,
2013-12-13 14:34:00,47.7,11.7,25.18,NNE,22,2.0,-999.0,23,-99.99,,,-99.99,dwt +perl,2013-12-13 22:34:00,
2013-12-13 14:39:00,47.3,11.4,25.18,NNE,31,5.0,-999.0,23,-99.99,,,-99.99,dwt +perl,2013-12-13 22:39:00,
2013-12-13 14:44:00,47.1,10.2,25.18,NNE,33,4.0,-999.0,22,-99.99,,,-99.99,dwt +perl,2013-12-13 22:44:00,
2013-12-13 14:49:00,47.0,11.1,25.18,NNE,29,6.0,-999.0,23,-99.99,,,-99.99,dwt +perl,2013-12-13 22:49:00,
2013-12-13 14:54:00,46.8,10.0,25.18,NE,35,5.0,-999.0,22,-99.99,,,-99.99,dwt +perl,2013-12-13 22:54:00,
2013-12-13 14:59:00,47.0,10.1,25.18,NE,41,3.0,-999.0,22,-99.99,,,-99.99,dwt +perl,2013-12-13 22:59:00,
2013-12-13 15:04:00,47.2,10.3,25.18,NNE,26,6.0,-999.0,22,-99.99,,,-99.99,dwt +perl,2013-12-13 23:04:00,
2013-12-13 15:09:00,47.2,9.3,25.18,NNE,27,5.0,-999.0,21,-99.99,,,-99.99,dwt +perl,2013-12-13 23:09:00,
2013-12-13 15:14:00,47.4,8.4,25.18,NNE,28,4.0,-999.0,20,-99.99,,,-99.99,dwt +perl,2013-12-13 23:14:00,
2013-12-13 15:19:00,47.5,9.5,25.18,NE,48,3.0,-999.0,21,-99.99,,,-99.99,dwt +perl,2013-12-13 23:19:00,
2013-12-13 15:24:00,47.6,10.7,25.18,NNE,30,7.0,-999.0,22,-99.99,,,-99.99,dwt +perl,2013-12-13 23:24:00,
2013-12-13 15:29:00,47.6,9.6,25.18,NE,52,5.0,-999.0,21,-99.99,,,-99.99,dwt +perl,2013-12-13 23:29:00,
2013-12-13 15:34:00,47.6,9.6,25.18,ENE,60,7.0,-999.0,21,-99.99,,,-99.99,dwt +perl,2013-12-13 23:34:00,
2013-12-13 15:39:00,47.5,9.5,25.18,NE,43,5.0,-999.0,21,-99.99,,,-99.99,dwt +perl,2013-12-13 23:39:00,
2013-12-13 15:42:00,47.2,8.2,25.18,NNE,28,2.0,-999.0,20,-99.99,,,-99.99,dwt +perl,2013-12-13 23:42:00,
2013-12-13 15:44:00,47.4,9.4,25.18,NE,45,3.0,-999.0,21,-99.99,,,-99.99,dwt +perl,2013-12-13 23:44:00,
2013-12-13 15:49:00,47.3,8.3,25.18,NNE,33,6.0,-999.0,20,-99.99,,,-99.99,dwt +perl,2013-12-13 23:49:00,
2013-12-13 15:59:00,46.8,10.0,25.18,NNE,33,4.0,-999.0,22,-99.99,,,-99.99,dwt +perl,2013-12-13 23:59:00,
2013-12-13 16:04:00,46.5,9.7,25.18,NE,48,6.0,-999.0,22,-99.99,,,-99.99,dwt +perl,2013-12-14 00:04:00,
2013-12-13 16:07:00,45.8,10.1,25.18,NNE,23,4.0,-999.0,23,-99.99,,,-99.99,dwt +perl,2013-12-14 00:07:00,
2013-12-13 16:09:00,46.3,9.6,25.18,NE,45,6.0,-999.0,22,-99.99,,,-99.99,dwt +perl,2013-12-14 00:09:00,
2013-12-13 16:14:00,46.0,9.3,25.18,NE,48,4.0,-999.0,22,-99.99,,,-99.99,dwt +perl,2013-12-14 00:14:00,
2013-12-13 16:17:00,45.4,9.8,25.18,NE,49,10.0,-999.0,23,-99.99,,,-99.99,dwt +perl,2013-12-14 00:17:00,
2013-12-13 16:24:00,45.6,10.0,25.18,NE,47,5.0,-999.0,23,-99.99,,,-99.99,dwt +perl,2013-12-14 00:24:00,
2013-12-13 16:34:00,45.4,11.7,25.18,ENE,60,8.0,-999.0,25,-99.99,,,-99.99,dwt +perl,2013-12-14 00:34:00,
2013-12-13 16:39:00,45.1,11.4,25.18,NE,50,10.0,-999.0,25,-99.99,,,-99.99,dwt +perl,2013-12-14 00:39:00,
2013-12-13 16:44:00,44.7,12.8,25.19,NE,52,5.0,-999.0,27,-99.99,,,-99.99,dwt +perl,2013-12-14 00:44:00,
2013-12-13 16:49:00,44.2,12.4,25.19,NE,52,10.0,-999.0,27,-99.99,,,-99.99,dwt +perl,2013-12-14 00:49:00,
2013-12-13 16:54:00,43.8,12.0,25.19,NE,48,8.0,-999.0,27,-99.99,,,-99.99,dwt +perl,2013-12-14 00:54:00,
2013-12-13 16:59:00,43.3,13.2,25.19,NE,50,10.0,-999.0,29,-99.99,,,-99.99,dwt +perl,2013-12-14 00:59:00,
2013-12-13 17:04:00,42.8,13.5,25.19,NE,54,11.0,-999.0,30,-99.99,,,-99.99,dwt +perl,2013-12-14 01:04:00,
2013-12-13 17:09:00,42.5,14.7,25.19,NE,53,10.0,-999.0,32,-99.99,,,-99.99,dwt +perl,2013-12-14 01:09:00,
2013-12-13 17:14:00,42.4,14.6,25.19,NE,49,12.0,-999.0,32,-99.99,,,-99.99,dwt +perl,2013-12-14 01:14:00,
2013-12-13 17:19:00,42.5,14.7,25.19,NE,54,11.0,-999.0,32,-99.99,,,-99.99,dwt +perl,2013-12-14 01:19:00,
2013-12-13 17:24:00,42.5,15.4,25.19,ENE,58,11.0,-999.0,33,-99.99,,,-99.99,dwt +perl,2013-12-14 01:24:00,
2013-12-13 17:29:00,42.5,14.7,25.19,ENE,62,11.0,-999.0,32,-99.99,,,-99.99,dwt +perl,2013-12-14 01:29:00,
2013-12-13 17:34:00,42.5,15.4,25.19,ENE,62,9.0,-999.0,33,-99.99,,,-99.99,dwt +perl,2013-12-14 01:34:00,
2013-12-13 17:39:00,42.4,15.4,25.19,ENE,58,10.0,-999.0,33,-99.99,,,-99.99,dwt +perl,2013-12-14 01:39:00,
2013-12-13 17:44:00,42.5,14.7,25.19,NE,51,11.0,-999.0,32,-99.99,,,-99.99,dwt +perl,2013-12-14 01:44:00,
2013-12-13 17:49:00,43.7,11.9,25.19,NE,49,13.0,-999.0,27,-99.99,,,-99.99,dwt +perl,2013-12-14 01:49:00,
2013-12-13 17:54:00,44.7,11.1,25.19,NE,48,14.0,-999.0,25,-99.99,,,-99.99,dwt +perl,2013-12-14 01:54:00,
2013-12-13 17:59:00,44.9,11.2,25.20,NE,46,16.0,-999.0,25,-99.99,,,-99.99,dwt +perl,2013-12-14 01:59:00,
2013-12-13 18:04:00,44.8,11.1,25.20,NE,55,11.0,-999.0,25,-99.99,,,-99.99,dwt +perl,2013-12-14 02:04:00,
2013-12-13 18:07:00,43.3,12.4,25.21,ENE,59,10.0,-999.0,28,-99.99,,,-99.99,dwt +perl,2013-12-14 02:07:00,
2013-12-13 18:09:00,44.4,11.7,25.20,NE,49,12.0,-999.0,26,-99.99,,,-99.99,dwt +perl,2013-12-14 02:09:00,
2013-12-13 18:14:00,43.7,11.9,25.20,NE,52,11.0,-999.0,27,-99.99,,,-99.99,dwt +perl,2013-12-14 02:14:00,
2013-12-13 18:22:00,43.2,12.3,25.21,ENE,68,8.0,-999.0,28,-99.99,,,-99.99,dwt +perl,2013-12-14 02:22:00,
2013-12-13 18:24:00,43.3,12.4,25.21,ENE,58,12.0,-999.0,28,-99.99,,,-99.99,dwt +perl,2013-12-14 02:24:00,
2013-12-13 18:29:00,43.4,12.5,25.21,ENE,61,10.0,-999.0,28,-99.99,,,-99.99,dwt +perl,2013-12-14 02:29:00,
2013-12-13 18:39:00,43.7,11.9,25.21,ENE,63,9.0,-999.0,27,-99.99,,,-99.99,dwt +perl,2013-12-14 02:39:00,
2013-12-13 18:42:00,43.5,12.6,25.21,NE,51,9.0,-999.0,28,-99.99,,,-99.99,dwt +perl,2013-12-14 02:42:00,
2013-12-13 18:44:00,43.6,12.7,25.21,ENE,64,8.0,-999.0,28,-99.99,,,-99.99,dwt +perl,2013-12-14 02:44:00,
2013-12-13 18:49:00,43.4,12.5,25.21,ENE,75,7.0,-999.0,28,-99.99,,,-99.99,dwt +perl,2013-12-14 02:49:00,
2013-12-13 18:52:00,44.0,11.3,25.21,NE,51,11.0,-999.0,26,-99.99,,,-99.99,dwt +perl,2013-12-14 02:52:00,
2013-12-13 18:59:00,43.7,11.9,25.21,NE,49,11.0,-999.0,27,-99.99,,,-99.99,dwt +perl,2013-12-14 02:59:00,
2013-12-13 19:09:00,44.4,10.8,25.21,NE,43,7.0,-999.0,25,-99.99,,,-99.99,dwt +perl,2013-12-14 03:09:00,
2013-12-13 19:14:00,44.5,10.9,25.22,NE,48,8.0,-999.0,25,-99.99,,,-99.99,dwt +perl,2013-12-14 03:14:00,
2013-12-13 19:19:00,44.5,10.9,25.22,NE,48,10.0,-999.0,25,-99.99,,,-99.99,dwt +perl,2013-12-14 03:19:00,
2013-12-13 19:24:00,44.4,11.7,25.22,NE,49,12.0,-999.0,26,-99.99,,,-99.99,dwt +perl,2013-12-14 03:24:00,
2013-12-13 19:29:00,44.1,12.3,25.22,NE,50,9.0,-999.0,27,-99.99,,,-99.99,dwt +perl,2013-12-14 03:29:00,
2013-12-13 19:34:00,43.5,11.8,25.22,NE,52,8.0,-999.0,27,-99.99,,,-99.99,dwt +perl,2013-12-14 03:34:00,
2013-12-13 19:39:00,43.3,12.4,25.22,ENE,57,8.0,-999.0,28,-99.99,,,-99.99,dwt +perl,2013-12-14 03:39:00,
2013-12-13 19:44:00,43.2,12.3,25.22,NE,52,8.0,-999.0,28,-99.99,,,-99.99,dwt +perl,2013-12-14 03:44:00,
2013-12-13 19:49:00,43.0,12.1,25.22,NE,54,10.0,-999.0,28,-99.99,,,-99.99,dwt +perl,2013-12-14 03:49:00,
2013-12-13 19:54:00,43.3,12.4,25.22,NE,53,9.0,-999.0,28,-99.99,,,-99.99,dwt +perl,2013-12-14 03:54:00,
2013-12-13 19:59:00,43.4,12.5,25.22,NE,51,8.0,-999.0,28,-99.99,,,-99.99,dwt +perl,2013-12-14 03:59:00,
2013-12-13 20:04:00,43.7,11.1,25.23,NE,48,8.0,-999.0,26,-99.99,,,-99.99,dwt +perl,2013-12-14 04:04:00,
2013-12-13 20:09:00,44.0,11.3,25.23,NE,48,7.0,-999.0,26,-99.99,,,-99.99,dwt +perl,2013-12-14 04:09:00,
2013-12-13 20:14:00,44.0,13.8,25.23,NE,48,9.0,-999.0,29,-99.99,,,-99.99,dwt +perl,2013-12-14 04:14:00,
2013-12-13 20:17:00,44.6,20.0,25.22,NE,45,8.0,-999.0,37,-99.99,,,-99.99,dwt +perl,2013-12-14 04:17:00,
2013-12-13 20:19:00,44.3,17.0,25.22,NE,50,10.0,-999.0,33,-99.99,,,-99.99,dwt +perl,2013-12-14 04:19:00,
2013-12-13 20:24:00,44.3,17.7,25.22,NE,43,14.0,-999.0,34,-99.99,,,-99.99,dwt +perl,2013-12-14 04:24:00,
2013-12-13 20:34:00,44.6,21.2,25.22,NE,44,8.0,-999.0,39,-99.99,,,-99.99,dwt +perl,2013-12-14 04:34:00,
2013-12-13 20:37:00,44.4,21.6,25.23,NE,37,3.0,-999.0,40,-99.99,,,-99.99,dwt +perl,2013-12-14 04:37:00,
2013-12-13 20:39:00,44.6,21.2,25.23,NE,53,8.0,-999.0,39,-99.99,,,-99.99,dwt +perl,2013-12-14 04:39:00,
2013-12-13 20:42:00,44.2,22.0,25.23,NE,42,5.0,-999.0,41,-99.99,,,-99.99,dwt +perl,2013-12-14 04:42:00,
2013-12-13 20:44:00,44.6,21.8,25.23,NE,53,5.0,-999.0,40,-99.99,,,-99.99,dwt +perl,2013-12-14 04:44:00,
2013-12-13 20:52:00,44.0,21.8,25.23,NE,42,9.0,-999.0,41,-99.99,,,-99.99,dwt +perl,2013-12-14 04:52:00,
2013-12-13 20:57:00,43.6,21.5,25.23,NE,50,3.0,-999.0,41,-99.99,,,-99.99,dwt +perl,2013-12-14 04:57:00,
2013-12-13 20:59:00,44.2,22.0,25.23,NE,43,6.0,-999.0,41,-99.99,,,-99.99,dwt +perl,2013-12-14 04:59:00,
2013-12-13 21:02:00,43.7,20.4,25.23,NE,41,2.0,-999.0,39,-99.99,,,-99.99,dwt +perl,2013-12-14 05:02:00,
2013-12-13 21:07:00,43.4,19.5,25.23,ENE,59,7.0,-999.0,38,-99.99,,,-99.99,dwt +perl,2013-12-14 05:07:00,
2013-12-13 21:12:00,43.1,19.2,25.23,ENE,60,10.0,-999.0,38,-99.99,,,-99.99,dwt +perl,2013-12-14 05:12:00,
2013-12-13 21:17:00,43.1,18.6,25.23,NE,45,9.0,-999.0,37,-99.99,,,-99.99,dwt +perl,2013-12-14 05:17:00,
2013-12-13 21:22:00,43.2,18.1,25.23,NE,52,7.0,-999.0,36,-99.99,,,-99.99,dwt +perl,2013-12-14 05:22:00,
2013-12-13 21:27:00,43.2,17.4,25.23,NE,52,10.0,-999.0,35,-99.99,,,-99.99,dwt +perl,2013-12-14 05:27:00,
2013-12-13 21:32:00,43.6,18.4,25.23,NNE,31,6.0,-999.0,36,-99.99,,,-99.99,dwt +perl,2013-12-14 05:32:00,
2013-12-13 21:37:00,43.7,17.9,25.23,NE,48,11.0,-999.0,35,-99.99,,,-99.99,dwt +perl,2013-12-14 05:37:00,
2013-12-13 21:42:00,43.6,17.8,25.23,NE,52,11.0,-999.0,35,-99.99,,,-99.99,dwt +perl,2013-12-14 05:42:00,
2013-12-13 21:47:00,43.3,17.5,25.23,NE,41,7.0,-999.0,35,-99.99,,,-99.99,dwt +perl,2013-12-14 05:47:00,
2013-12-13 21:52:00,43.4,18.2,25.24,NE,39,11.0,-999.0,36,-99.99,,,-99.99,dwt +perl,2013-12-14 05:52:00,
2013-12-13 22:02:00,43.7,19.1,25.24,NE,50,13.0,-999.0,37,-99.99,,,-99.99,dwt +perl,2013-12-14 06:02:00,
2013-12-13 22:07:00,43.6,18.4,25.24,NE,48,12.0,-999.0,36,-99.99,,,-99.99,dwt +perl,2013-12-14 06:07:00,
2013-12-13 22:12:00,43.4,18.2,25.24,NE,42,7.0,-999.0,36,-99.99,,,-99.99,dwt +perl,2013-12-14 06:12:00,
2013-12-13 22:17:00,43.4,18.2,25.24,NE,49,11.0,-999.0,36,-99.99,,,-99.99,dwt +perl,2013-12-14 06:17:00,
2013-12-13 22:22:00,43.2,18.7,25.25,NE,43,8.0,-999.0,37,-99.99,,,-99.99,dwt +perl,2013-12-14 06:22:00,
2013-12-13 22:27:00,43.4,18.9,25.24,NE,52,13.0,-999.0,37,-99.99,,,-99.99,dwt +perl,2013-12-14 06:27:00,
2013-12-13 22:32:00,43.3,19.4,25.25,NE,52,12.0,-999.0,38,-99.99,,,-99.99,dwt +perl,2013-12-14 06:32:00,
2013-12-13 22:37:00,42.9,19.1,25.25,NE,50,11.0,-999.0,38,-99.99,,,-99.99,dwt +perl,2013-12-14 06:37:00,
2013-12-13 22:42:00,42.9,19.1,25.25,NE,49,10.0,-999.0,38,-99.99,,,-99.99,dwt +perl,2013-12-14 06:42:00,
2013-12-13 22:47:00,42.8,19.0,25.25,ENE,57,12.0,-999.0,38,-99.99,,,-99.99,dwt +perl,2013-12-14 06:47:00,
2013-12-13 22:52:00,42.8,19.0,25.25,NE,50,11.0,-999.0,38,-99.99,,,-99.99,dwt +perl,2013-12-14 06:52:00,
2013-12-13 22:57:00,42.8,19.6,25.25,NE,53,12.0,-999.0,39,-99.99,,,-99.99,dwt +perl,2013-12-14 06:57:00,
2013-12-13 23:02:00,42.8,19.6,25.25,NE,50,12.0,-999.0,39,-99.99,,,-99.99,dwt +perl,2013-12-14 07:02:00,
2013-12-13 23:07:00,42.6,19.4,25.25,NE,49,11.0,-999.0,39,-99.99,,,-99.99,dwt +perl,2013-12-14 07:07:00,
2013-12-13 23:12:00,42.3,19.1,25.24,NE,52,10.0,-999.0,39,-99.99,,,-99.99,dwt +perl,2013-12-14 07:12:00,
2013-12-13 23:17:00,42.3,19.1,25.24,NE,53,11.0,-999.0,39,-99.99,,,-99.99,dwt +perl,2013-12-14 07:17:00,
2013-12-13 23:22:00,42.2,19.0,25.24,ENE,58,11.0,-999.0,39,-99.99,,,-99.99,dwt +perl,2013-12-14 07:22:00,
2013-12-13 23:27:00,42.2,19.6,25.25,NE,52,12.0,-999.0,40,-99.99,,,-99.99,dwt +perl,2013-12-14 07:27:00,
2013-12-13 23:32:00,41.9,19.4,25.25,ENE,58,12.0,-999.0,40,-99.99,,,-99.99,dwt +perl,2013-12-14 07:32:00,
2013-12-13 23:37:00,41.7,18.6,25.25,NE,55,12.0,-999.0,39,-99.99,,,-99.99,dwt +perl,2013-12-14 07:37:00,
2013-12-13 23:42:00,41.4,18.3,25.25,NE,54,13.0,-999.0,39,-99.99,,,-99.99,dwt +perl,2013-12-14 07:42:00,
2013-12-13 23:47:00,41.4,18.3,25.25,NE,51,12.0,-999.0,39,-99.99,,,-99.99,dwt +perl,2013-12-14 07:47:00,
2013-12-13 23:52:00,41.2,18.1,25.25,NE,52,12.0,-999.0,39,-99.99,,,-99.99,dwt +perl,2013-12-14 07:52:00,
2013-12-13 23:57:00,41.2,18.1,25.25,NE,51,12.0,-999.0,39,-99.99,,,-99.99,dwt +perl,2013-12-14 07:57:00,